Time,TemperatureF,DewpointF,PressureIn,WindDirection,WindDirectionDegrees,WindSpeedMPH,WindSpeedGustMPH,Humidity,HourlyPrecipIn,Conditions,Clouds,dailyrainin,SolarRadiationWatts/m^2,SoftwareType,DateUTC
2013-12-24 00:02:00,27.0,21.0,-100.00,NNW,336,8.0,14.0,79,0.00,,,0.02,0.000000,,2013-12-24 06:02:00,
2013-12-24 00:42:00,26.0,20.0,-100.00,WNW,298,4.0,13.0,79,0.00,,,-99.99,0.000000,,2013-12-24 06:42:00,
2013-12-24 00:52:00,26.0,20.0,-100.00,WNW,298,4.0,13.0,79,0.00,,,-99.99,0.000000,,2013-12-24 06:52:00,
2013-12-24 01:02:00,26.0,20.0,-100.00,WNW,298,4.0,13.0,79,0.00,,,-99.99,0.000000,,2013-12-24 07:02:00,
2013-12-24 01:42:00,26.0,20.0,-100.00,North,10,5.0,11.0,77,0.00,,,0.00,0.000000,,2013-12-24 07:42:00,
2013-12-24 01:52:00,26.0,20.0,-100.00,North,10,5.0,11.0,77,0.00,,,0.00,0.000000,,2013-12-24 07:52:00,
2013-12-24 02:01:00,26.0,20.0,-100.00,North,10,5.0,11.0,77,0.00,,,0.00,0.000000,,2013-12-24 08:01:00,
2013-12-24 02:42:00,26.0,21.0,-100.00,NW,323,6.0,11.0,80,0.00,,,0.00,0.000000,,2013-12-24 08:42:00,
2013-12-24 02:52:00,26.0,21.0,-100.00,NW,323,6.0,11.0,80,0.00,,,0.00,0.000000,,2013-12-24 08:52:00,
2013-12-24 03:02:00,26.0,21.0,-100.00,NW,323,6.0,11.0,80,0.00,,,0.00,0.000000,,2013-12-24 09:02:00,
2013-12-24 03:43:00,26.0,20.0,-100.00,NW,305,5.0,9.0,78,0.00,,,0.00,0.000000,,2013-12-24 09:43:00,
2013-12-24 03:53:00,26.0,20.0,-100.00,NW,305,5.0,9.0,78,0.00,,,0.00,0.000000,,2013-12-24 09:53:00,
2013-12-24 04:03:00,26.0,20.0,-100.00,NW,305,5.0,9.0,78,0.00,,,0.00,0.000000,,2013-12-24 10:03:00,
2013-12-24 04:43:00,26.0,19.0,-100.00,NW,315,5.0,10.0,75,0.00,,,0.00,0.000000,,2013-12-24 10:43:00,
2013-12-24 04:53:00,26.0,19.0,-100.00,NW,315,5.0,10.0,75,0.00,,,0.00,0.000000,,2013-12-24 10:53:00,
2013-12-24 05:02:00,26.0,19.0,-100.00,NW,315,5.0,10.0,75,0.00,,,0.00,0.000000,,2013-12-24 11:02:00,
2013-12-24 05:42:00,26.0,19.0,-100.00,NW,325,5.0,12.0,76,0.00,,,0.00,0.000000,,2013-12-24 11:42:00,
2013-12-24 05:53:00,26.0,19.0,-100.00,NW,325,5.0,12.0,76,0.00,,,0.00,0.000000,,2013-12-24 11:53:00,
2013-12-24 06:02:00,26.0,19.0,-100.00,NW,325,5.0,12.0,76,0.00,,,0.00,0.000000,,2013-12-24 12:02:00,
2013-12-24 06:42:00,26.0,19.0,-100.00,NW,326,8.0,14.0,74,0.00,,,0.00,0.000000,,2013-12-24 12:42:00,
2013-12-24 06:52:00,26.0,19.0,-100.00,NW,326,8.0,14.0,74,0.00,,,0.00,0.000000,,2013-12-24 12:52:00,
2013-12-24 07:02:00,26.0,19.0,-100.00,NW,326,8.0,14.0,74,0.00,,,0.00,0.000000,,2013-12-24 13:02:00,
2013-12-24 07:42:00,25.0,17.0,-100.00,NNW,340,7.0,17.0,71,0.00,,,0.00,1.000000,,2013-12-24 13:42:00,
2013-12-24 07:52:00,25.0,17.0,-100.00,NNW,340,7.0,17.0,71,0.00,,,0.00,1.000000,,2013-12-24 13:52:00,
2013-12-24 08:02:00,25.0,17.0,-100.00,NNW,340,7.0,17.0,71,0.00,,,0.00,1.000000,,2013-12-24 14:02:00,
2013-12-24 08:42:00,25.0,16.0,-100.00,NW,324,7.0,13.0,69,0.00,,,0.00,16.000000,,2013-12-24 14:42:00,
2013-12-24 08:52:00,25.0,16.0,-100.00,NW,324,7.0,13.0,69,0.00,,,0.00,16.000000,,2013-12-24 14:52:00,
2013-12-24 09:02:00,25.0,16.0,-100.00,NW,324,7.0,13.0,69,0.00,,,0.00,16.000000,,2013-12-24 15:02:00,
2013-12-24 09:43:00,24.0,17.0,-100.00,NW,318,7.0,15.0,73,0.00,,,0.00,73.000000,,2013-12-24 15:43:00,
2013-12-24 09:54:00,24.0,17.0,-100.00,NW,318,7.0,15.0,73,0.00,,,0.00,73.000000,,2013-12-24 15:54:00,
2013-12-24 10:03:00,24.0,17.0,-100.00,NW,318,7.0,15.0,73,0.00,,,0.00,73.000000,,2013-12-24 16:03:00,
2013-12-24 10:43:00,26.0,13.0,-100.00,NNW,327,7.0,15.0,58,0.00,,,0.00,337.000000,,2013-12-24 16:43:00,
2013-12-24 10:53:00,26.0,13.0,-100.00,NNW,327,7.0,15.0,58,0.00,,,0.00,337.000000,,2013-12-24 16:53:00,
2013-12-24 11:02:00,26.0,13.0,-100.00,NNW,327,7.0,15.0,58,0.00,,,0.00,337.000000,,2013-12-24 17:02:00,
2013-12-24 11:42:00,27.0,13.0,-100.00,NNW,341,6.0,12.0,54,0.00,,,0.00,444.000000,,2013-12-24 17:42:00,
2013-12-24 11:52:00,27.0,13.0,-100.00,NNW,341,6.0,12.0,54,0.00,,,0.00,444.000000,,2013-12-24 17:52:00,
2013-12-24 12:02:00,27.0,13.0,-100.00,NNW,341,6.0,12.0,54,0.00,,,0.00,444.000000,,2013-12-24 18:02:00,
2013-12-24 12:42:00,28.0,10.0,-100.00,NW,313,6.0,13.0,46,0.00,,,0.00,477.000000,,2013-12-24 18:42:00,
2013-12-24 12:52:00,28.0,10.0,-100.00,NW,313,6.0,13.0,46,0.00,,,0.00,477.000000,,2013-12-24 18:52:00,
2013-12-24 13:01:00,28.0,10.0,-100.00,NW,313,6.0,13.0,46,0.00,,,0.00,477.000000,,2013-12-24 19:01:00,
2013-12-24 13:42:00,30.0,7.0,-100.00,NNW,344,5.0,13.0,37,0.00,,,0.00,460.000000,,2013-12-24 19:42:00,
2013-12-24 13:52:00,30.0,7.0,-100.00,NNW,344,5.0,13.0,37,0.00,,,0.00,460.000000,,2013-12-24 19:52:00,
2013-12-24 14:01:00,30.0,7.0,-100.00,NNW,344,5.0,13.0,37,0.00,,,0.00,460.000000,,2013-12-24 20:01:00,
2013-12-24 14:42:00,31.0,9.0,-100.00,North,350,5.0,12.0,39,0.00,,,0.00,389.000000,,2013-12-24 20:42:00,
2013-12-24 14:52:00,31.0,9.0,-100.00,North,350,5.0,12.0,39,0.00,,,0.00,389.000000,,2013-12-24 20:52:00,
2013-12-24 15:02:00,31.0,9.0,-100.00,North,350,5.0,12.0,39,0.00,,,0.00,389.000000,,2013-12-24 21:02:00,
2013-12-24 15:43:00,30.0,8.0,-100.00,NNE,17,5.0,10.0,38,0.00,,,0.00,275.000000,,2013-12-24 21:43:00,
2013-12-24 15:53:00,30.0,8.0,-100.00,NNE,17,5.0,10.0,38,0.00,,,0.00,275.000000,,2013-12-24 21:53:00,
2013-12-24 16:03:00,30.0,8.0,-100.00,NNE,17,5.0,10.0,38,0.00,,,0.00,275.000000,,2013-12-24 22:03:00,
2013-12-24 16:43:00,27.0,8.0,-100.00,NNE,27,3.0,10.0,44,0.00,,,0.00,120.000000,,2013-12-24 22:43:00,
2013-12-24 16:53:00,27.0,8.0,-100.00,NNE,27,3.0,10.0,44,0.00,,,0.00,120.000000,,2013-12-24 22:53:00,
2013-12-24 17:02:00,27.0,8.0,-100.00,NNE,27,3.0,10.0,44,0.00,,,0.00,120.000000,,2013-12-24 23:02:00,
2013-12-24 17:42:00,25.0,9.0,-100.00,NNE,26,2.0,5.0,51,0.00,,,0.00,7.000000,,2013-12-24 23:42:00,
2013-12-24 17:53:00,25.0,9.0,-100.00,NNE,26,2.0,5.0,51,0.00,,,0.00,7.000000,,2013-12-24 23:53:00,
2013-12-24 18:02:00,25.0,9.0,-100.00,NNE,26,2.0,5.0,51,0.00,,,0.00,7.000000,,2013-12-25 00:02:00,
2013-12-24 18:42:00,23.0,10.0,-100.00,NNE,14,2.0,4.0,58,0.00,,,0.00,0.000000,,2013-12-25 00:42:00,
2013-12-24 18:52:00,23.0,10.0,-100.00,NNE,14,2.0,4.0,58,0.00,,,0.00,0.000000,,2013-12-25 00:52:00,
2013-12-24 19:02:00,23.0,10.0,-100.00,NNE,14,2.0,4.0,58,0.00,,,0.00,0.000000,,2013-12-25 01:02:00,
2013-12-24 19:42:00,22.0,9.0,-100.00,NNE,28,2.0,3.0,57,0.00,,,0.00,0.000000,,2013-12-25 01:42:00,
2013-12-24 19:52:00,22.0,9.0,-100.00,NNE,28,2.0,3.0,57,0.00,,,0.00,0.000000,,2013-12-25 01:52:00,
2013-12-24 20:01:00,22.0,9.0,-100.00,NNE,28,2.0,3.0,57,0.00,,,0.00,0.000000,,2013-12-25 02:01:00,
2013-12-24 20:42:00,21.0,10.0,-100.00,NNE,23,3.0,4.0,62,0.00,,,0.00,0.000000,,2013-12-25 02:42:00,
2013-12-24 20:53:00,21.0,10.0,-100.00,NNE,23,3.0,4.0,62,0.00,,,0.00,0.000000,,2013-12-25 02:53:00,
2013-12-24 21:02:00,21.0,10.0,-100.00,NNE,23,3.0,4.0,62,0.00,,,0.00,0.000000,,2013-12-25 03:02:00,
2013-12-24 21:43:00,20.0,10.0,-100.00,ENE,60,2.0,4.0,64,0.00,,,0.00,0.000000,,2013-12-25 03:43:00,
2013-12-24 21:53:00,20.0,10.0,-100.00,ENE,60,2.0,4.0,64,0.00,,,0.00,0.000000,,2013-12-25 03:53:00,
2013-12-24 22:03:00,20.0,10.0,-100.00,ENE,60,2.0,4.0,64,0.00,,,0.00,0.000000,,2013-12-25 04:03:00,
2013-12-24 22:43:00,20.0,10.0,-100.00,ENE,65,2.0,3.0,64,0.00,,,0.00,0.000000,,2013-12-25 04:43:00,
2013-12-24 22:53:00,20.0,10.0,-100.00,ENE,65,2.0,3.0,64,0.00,,,0.00,0.000000,,2013-12-25 04:53:00,
2013-12-24 23:02:00,20.0,10.0,-100.00,ENE,65,2.0,3.0,64,0.00,,,0.00,0.000000,,2013-12-25 05:02:00,
2013-12-24 23:43:00,19.0,10.0,-100.00,East,81,2.0,3.0,66,0.00,,,0.00,0.000000,,2013-12-25 05:43:00,
2013-12-24 23:53:00,19.0,10.0,-100.00,East,81,2.0,3.0,66,0.00,,,0.00,0.000000,,2013-12-25 05:53:00,